User: anonymous   Login
Location: Baix
(44.7118°N, 4.7648°E)
Time: 07:29:39
(UTC+00:00)
Language:

Cosmos 1300 Rocket - Orbit

View from above orbital plane
View from above orbital plane
View from above satellite
View from above satellite

Ground track
Ground track

The orbit data is extracted from the following two-line orbital elements,

1 12786U 81082B   20299.95669810 +.00000091 +00000-0 +78491-5 0  9993
2 12786 082.4886 251.3861 0017990 160.2198 199.9719 14.84801562095751
Epoch (UTC): 25 October 2020 22:57:38
Eccentricity: 0.0017990
inclination: 82.4886°
perigee height: 601 km
apogee height: 627 km
right ascension of ascending node: 251.3861°
argument of perigee: 160.2198°
revolutions per day: 14.84801562
mean anomaly at epoch: 199.9719°
orbit number at epoch: 9575

The dashed part of the orbit path shows where the satellite is in the earth's shadow,  

DLR